Terug naar catalogus

SCOUT G-1 DEB

ActiefPO
NORAD 29212·DEBRIS·🇺🇸 United States

Gelanceerd Apr 26, 1988 vanaf Vandenberg Space Force Base

Loading…

Volgende Passages (komende 24 uur)

TLE

VerouderdSource: Space-Track

Epoch: Aug 16, 2026, 15:22 UTC

1 29212U 88033H   26228.64028007  .00002117  00000-0  24777-2 0  9995
2 29212  90.2993  13.3443 0152348 293.3148  80.6434 13.63370434205120

Volg SCOUT G-1 DEB in realtime met AllMySat

Download on the App Store